KUIPER-00059

Last updated on Thu Jul 03 2025 00:02:08 GMT+0000 (Coordinated Universal Time)

1 64519U 25134V 25183.58335648 .00005029 00000+0 15009-3 0 9994 2 64519 51.8785 286.8694 0001591 90.0117 48.8909 15.36400629 1845
UTC large
Height (km)
Speed (km/s)
/
Latitude / Longitude
Inclination (degrees)
Orbital Period (minutes)
Azimuth
Elevation
Range (km)
Doppler Factor

Next 0 passes for location: London (51.5072 / 0.1276)

Sorry there are no passes over London.